| time (UTC) | temp F | wind direction | speed MPH | gust MPH | rain 1hr in | rain 24hr in | rain mn in | humidity % | barometer mb |
| 20260905200345 | 100 | 171 | 4.0 | 10.0 | 0.00 | 0.00 | 0.00 | 41 | 1011.0 |
| 20260905194245 | 98 | 5 | 1.0 | 8.0 | 0.00 | 0.00 | 0.00 | 42 | 1011.3 |
| 20260905193257 | 97 | 172 | 2.0 | 8.0 | 0.00 | 0.00 | 0.00 | 45 | 1011.5 |
| 20260905192253 | 97 | 330 | 1.0 | 6.0 | 0.00 | 0.00 | 0.00 | 44 | 1011.6 |
| 20260905191311 | 98 | 159 | 2.0 | 6.0 | 0.00 | 0.00 | 0.00 | 44 | 1011.9 |
| 20260905185148 | 98 | 172 | 2.0 | 7.0 | 0.00 | 0.00 | 0.00 | 45 | 1012.3 |
| 20260905184156 | 97 | 161 | 4.0 | 15.0 | 0.00 | 0.00 | 0.00 | 46 | 1012.4 |
| 20260905183151 | 96 | 168 | 2.0 | 15.0 | 0.00 | 0.00 | 0.00 | 48 | 1012.5 |
| 20260905182127 | 97 | 88 | 2.0 | 9.0 | 0.00 | 0.00 | 0.00 | 47 | 1012.6 |
| 20260905181128 | 97 | 150 | 2.0 | 9.0 | 0.00 | 0.00 | 0.00 | 46 | 1012.7 |
| 20260905180054 | 97 | 103 | 6.0 | 11.0 | 0.00 | 0.00 | 0.00 | 47 | 1013.1 |
| 20260905175054 | 96 | 194 | 2.0 | 11.0 | 0.00 | 0.00 | 0.00 | 50 | 1013.2 |
| 20260905174115 | 95 | 198 | 0.0 | 10.0 | 0.00 | 0.00 | 0.00 | 50 | 1013.3 |
| 20260905173051 | 94 | 211 | 3.0 | 10.0 | 0.00 | 0.00 | 0.00 | 52 | 1013.5 |
| 20260905172101 | 94 | 166 | 2.0 | 8.0 | 0.00 | 0.00 | 0.00 | 51 | 1013.6 |
| 20260905171056 | 93 | 130 | 0.0 | 3.0 | 0.00 | 0.00 | 0.00 | 55 | 1013.6 |
| 20260905170055 | 93 | 215 | 3.0 | 7.0 | 0.00 | 0.00 | 0.00 | 53 | 1013.7 |
| 20260905165120 | 93 | 191 | 2.0 | 6.0 | 0.00 | 0.00 | 0.00 | 54 | 1013.8 |
| 20260905164143 | 92 | 223 | 1.0 | 2.0 | 0.00 | 0.00 | 0.00 | 55 | 1013.8 |
| 20260905161952 | 91 | 227 | 0.0 | 7.0 | 0.00 | 0.00 | 0.00 | 59 | 1013.9 |
| 20260905161006 | 90 | 196 | 2.0 | 7.0 | 0.00 | 0.00 | 0.00 | 59 | 1013.9 |
| 20260905155949 | 89 | 138 | 0.0 | 2.0 | 0.00 | 0.00 | 0.00 | 61 | 1013.9 |
| 20260905153817 | 88 | 270 | 2.0 | 6.0 | 0.00 | 0.00 | 0.00 | 63 | 1013.9 |
| 20260905151655 | 87 | 240 | 1.0 | 6.0 | 0.00 | 0.00 | 0.00 | 67 | 1013.8 |
| 20260905150703 | 87 | 200 | 0.0 | 4.0 | 0.00 | 0.00 | 0.00 | 67 | 1013.7 |
| 20260905145638 | 86 | 239 | 2.0 | 6.0 | 0.00 | 0.00 | 0.00 | 68 | 1013.7 |
| 20260905144700 | 86 | 171 | 1.0 | 6.0 | 0.00 | 0.00 | 0.00 | 70 | 1013.8 |
| 20260905143704 | 85 | 198 | 2.0 | 5.0 | 0.00 | 0.00 | 0.00 | 71 | 1013.7 |
| 20260905142701 | 85 | 266 | 1.0 | 6.0 | 0.00 | 0.00 | 0.00 | 72 | 1013.7 |
| 20260905141633 | 84 | 228 | 2.0 | 6.0 | 0.00 | 0.00 | 0.00 | 73 | 1013.7 |
| 20260905140615 | 83 | 184 | 1.0 | 5.0 | 0.00 | 0.00 | 0.00 | 75 | 1013.6 |
| 20260905135547 | 82 | 194 | 0.0 | 4.0 | 0.00 | 0.00 | 0.00 | 77 | 1013.6 |
| 20260905134602 | 81 | 217 | 0.0 | 0.0 | 0.00 | 0.00 | 0.00 | 80 | 1013.5 |
| 20260905132436 | 78 | 150 | 0.0 | 0.0 | 0.00 | 0.00 | 0.00 | 85 | 1013.5 |
| 20260905131444 | 77 | 150 | 0.0 | 0.0 | 0.00 | 0.00 | 0.00 | 87 | 1013.5 |
| 20260905130418 | 76 | 150 | 0.0 | 0.0 | 0.00 | 0.00 | 0.00 | 88 | 1013.4 |
| 20260905125345 | 75 | 150 | 0.0 | 0.0 | 0.00 | 0.00 | 0.00 | 89 | 1013.3 |
| 20260905124325 | 74 | 150 | 0.0 | 0.0 | 0.00 | 0.00 | 0.00 | 88 | 1013.3 |
| 20260905122120 | 74 | 150 | 0.0 | 0.0 | 0.00 | 0.00 | 0.00 | 87 | 1012.8 |
| 20260905121107 | 74 | 150 | 0.0 | 0.0 | 0.00 | 0.00 | 0.00 | 87 | 1012.7 |
| 20260905114956 | 75 | 150 | 0.0 | 0.0 | 0.00 | 0.00 | 0.00 | 88 | 1012.6 |
| 20260905112901 | 75 | 71 | 0.0 | 0.0 | 0.00 | 0.00 | 0.00 | 87 | 1012.6 |
| 20260905111919 | 75 | 71 | 0.0 | 0.0 | 0.00 | 0.00 | 0.00 | 87 | 1012.6 |
| 20260905110912 | 75 | 71 | 0.0 | 0.0 | 0.00 | 0.00 | 0.00 | 86 | 1012.6 |
| 20260905105930 | 75 | 71 | 0.0 | 0.0 | 0.00 | 0.00 | 0.00 | 86 | 1012.7 |
| 20260905104929 | 75 | 71 | 0.0 | 0.0 | 0.00 | 0.00 | 0.00 | 86 | 1012.6 |
| 20260905103903 | 75 | 71 | 0.0 | 0.0 | 0.00 | 0.00 | 0.00 | 86 | 1012.8 |
| 20260905102927 | 75 | 71 | 0.0 | 0.0 | 0.00 | 0.00 | 0.00 | 86 | 1013.0 |
| 20260905100838 | 75 | 71 | 0.0 | 0.0 | 0.00 | 0.00 | 0.00 | 85 | 1012.8 |
| 20260905095826 | 75 | 71 | 0.0 | 0.0 | 0.00 | 0.00 | 0.00 | 85 | 1012.7 |
| 20260905094829 | 75 | 71 | 0.0 | 0.0 | 0.00 | 0.00 | 0.00 | 84 | 1012.6 |
| 20260905093806 | 76 | 71 | 0.0 | 0.0 | 0.00 | 0.00 | 0.00 | 84 | 1012.6 |
| 20260905092807 | 76 | 73 | 0.0 | 0.0 | 0.00 | 0.00 | 0.00 | 84 | 1012.5 |
| 20260905091825 | 76 | 151 | 0.0 | 0.0 | 0.00 | 0.00 | 0.00 | 83 | 1012.4 |
| 20260905090842 | 76 | 151 | 0.0 | 0.0 | 0.00 | 0.00 | 0.00 | 82 | 1012.2 |
| 20260905085842 | 77 | 151 | 0.0 | 0.0 | 0.00 | 0.00 | 0.00 | 82 | 1012.1 |
| 20260905083710 | 77 | 148 | 0.0 | 0.0 | 0.00 | 0.00 | 0.00 | 82 | 1012.1 |
| 20260905082726 | 77 | 145 | 0.0 | 0.0 | 0.00 | 0.00 | 0.00 | 82 | 1012.1 |
| 20260905081727 | 77 | 145 | 0.0 | 0.0 | 0.00 | 0.00 | 0.00 | 81 | 1012.1 |
| 20260905075615 | 77 | 145 | 0.0 | 0.0 | 0.00 | 0.00 | 0.00 | 82 | 1012.2 |
| 20260905074630 | 77 | 145 | 0.0 | 0.0 | 0.00 | 0.00 | 0.00 | 80 | 1012.1 |
| 20260905073607 | 77 | 134 | 0.0 | 0.0 | 0.00 | 0.00 | 0.00 | 80 | 1012.2 |
| 20260905072556 | 78 | 134 | 0.0 | 0.0 | 0.00 | 0.00 | 0.00 | 78 | 1012.3 |
| 20260905065322 | 79 | 134 | 0.0 | 0.0 | 0.00 | 0.00 | 0.00 | 77 | 1012.6 |
| 20260905064317 | 79 | 134 | 0.0 | 1.0 | 0.00 | 0.00 | 0.00 | 77 | 1012.7 |
| 20260905063339 | 79 | 134 | 1.0 | 0.0 | 0.00 | 0.00 | 0.00 | 77 | 1012.7 |
| 20260905062307 | 79 | 147 | 0.0 | 1.0 | 0.00 | 0.00 | 0.00 | 77 | 1012.6 |
| 20260905060228 | 80 | 164 | 0.0 | 0.0 | 0.00 | 0.00 | 0.00 | 75 | 1012.5 |
| 20260905055156 | 80 | 164 | 0.0 | 0.0 | 0.00 | 0.00 | 0.00 | 74 | 1012.5 |
| 20260905054206 | 80 | 164 | 0.0 | 0.0 | 0.00 | 0.00 | 0.00 | 72 | 1012.3 |
| 20260905052030 | 81 | 164 | 0.0 | 0.0 | 0.00 | 0.00 | 0.00 | 72 | 1012.3 |
| 20260905051014 | 82 | 164 | 0.0 | 0.0 | 0.00 | 0.02 | 0.00 | 71 | 1012.2 |
| 20260905050032 | 82 | 167 | 0.0 | 3.0 | 0.00 | 0.02 | 0.00 | 70 | 1012.3 |
| 20260905043941 | 82 | 167 | 0.0 | 0.0 | 0.00 | 0.02 | 0.00 | 69 | 1012.2 |
| 20260905042920 | 83 | 170 | 1.0 | 5.0 | 0.00 | 0.02 | 0.00 | 69 | 1012.2 |
| 20260905040723 | 83 | 153 | 1.0 | 4.0 | 0.00 | 0.02 | 0.00 | 69 | 1012.2 |
| 20260905035734 | 83 | 155 | 1.0 | 3.0 | 0.00 | 0.02 | 0.00 | 69 | 1012.2 |
| 20260905034710 | 83 | 158 | 0.0 | 3.0 | 0.00 | 0.02 | 0.00 | 69 | 1012.2 |
| 20260905033703 | 83 | 150 | 0.0 | 1.0 | 0.00 | 0.02 | 0.00 | 68 | 1012.2 |
| 20260905032634 | 83 | 149 | 0.0 | 1.0 | 0.00 | 0.02 | 0.00 | 67 | 1012.3 |
| 20260905031604 | 84 | 157 | 0.0 | 2.0 | 0.00 | 0.02 | 0.00 | 67 | 1012.2 |
| 20260905030547 | 84 | 153 | 0.0 | 2.0 | 0.00 | 0.02 | 0.00 | 66 | 1012.2 |
| 20260905024407 | 85 | 136 | 0.0 | 0.0 | 0.00 | 0.02 | 0.00 | 64 | 1011.8 |
| 20260905023417 | 85 | 132 | 0.0 | 0.0 | 0.00 | 0.02 | 0.00 | 63 | 1011.9 |
| 20260905022409 | 86 | 132 | 0.0 | 0.0 | 0.00 | 0.02 | 0.00 | 62 | 1011.6 |
| 20260905021356 | 86 | 132 | 0.0 | 0.0 | 0.00 | 0.02 | 0.00 | 61 | 1011.4 |
| 20260905020357 | 87 | 132 | 0.0 | 0.0 | 0.00 | 0.02 | 0.00 | 61 | 1011.4 |
| 20260905015344 | 87 | 129 | 0.0 | 0.0 | 0.00 | 0.02 | 0.00 | 59 | 1011.4 |
| 20260905014401 | 88 | 126 | 0.0 | 0.0 | 0.00 | 0.02 | 0.00 | 58 | 1011.2 |
| 20260905013421 | 89 | 140 | 0.0 | 0.0 | 0.00 | 0.02 | 0.00 | 57 | 1011.0 |
| 20260905011310 | 90 | 142 | 0.0 | 4.0 | 0.00 | 0.02 | 0.00 | 54 | 1010.9 |
| 20260905010333 | 91 | 143 | 2.0 | 4.0 | 0.00 | 0.02 | 0.00 | 54 | 1010.8 |
| 20260905005338 | 92 | 135 | 2.0 | 7.0 | 0.00 | 0.02 | 0.00 | 52 | 1010.8 |
| 20260905004325 | 92 | 140 | 3.0 | 11.0 | 0.00 | 0.02 | 0.00 | 51 | 1010.7 |
| 20260905003326 | 93 | 124 | 5.0 | 11.0 | 0.00 | 0.02 | 0.00 | 50 | 1010.7 |
| 20260905002252 | 94 | 125 | 5.0 | 9.0 | 0.00 | 0.02 | 0.00 | 49 | 1010.6 |
| 20260904233941 | 97 | 161 | 3.0 | 10.0 | 0.00 | 0.02 | 0.00 | 45 | 1010.4 |
| 20260904232920 | 97 | 176 | 5.0 | 12.0 | 0.00 | 0.02 | 0.00 | 45 | 1010.4 |
| 20260904231923 | 97 | 168 | 7.0 | 12.0 | 0.00 | 0.02 | 0.00 | 45 | 1010.4 |
| 20260904230903 | 98 | 123 | 4.0 | 15.0 | 0.00 | 0.02 | 0.00 | 44 | 1010.3 |
| 20260904224757 | 98 | 136 | 5.0 | 11.0 | 0.00 | 0.02 | 0.00 | 44 | 1010.5 |
| 20260904223745 | 98 | 111 | 5.0 | 13.0 | 0.00 | 0.02 | 0.00 | 43 | 1010.5 |
| 20260904222713 | 99 | 118 | 7.0 | 13.0 | 0.00 | 0.02 | 0.00 | 43 | 1010.5 |
| 20260904221641 | 99 | 139 | 7.0 | 14.0 | 0.00 | 0.02 | 0.00 | 43 | 1010.5 |
| 20260904215517 | 99 | 178 | 6.0 | 16.0 | 0.00 | 0.02 | 0.00 | 42 | 1010.6 |
| 20260904214500 | 100 | 144 | 7.0 | 16.0 | 0.00 | 0.02 | 0.00 | 41 | 1010.9 |
| 20260904213514 | 100 | 215 | 7.0 | 14.0 | 0.00 | 0.02 | 0.00 | 42 | 1010.9 |
| 20260904212534 | 100 | 171 | 7.0 | 14.0 | 0.00 | 0.02 | 0.00 | 41 | 1010.9 |
| 20260904211509 | 100 | 203 | 5.0 | 14.0 | 0.00 | 0.02 | 0.00 | 42 | 1011.0 |
| 20260904210534 | 99 | 124 | 8.0 | 14.0 | 0.00 | 0.02 | 0.00 | 43 | 1011.1 |
| 20260904204412 | 97 | 188 | 4.0 | 11.0 | 0.00 | 0.02 | 0.00 | 45 | 1011.2 |
| 20260904203349 | 98 | 190 | 5.0 | 14.0 | 0.00 | 0.02 | 0.00 | 43 | 1011.4 |
| 20260904202322 | 98 | 132 | 5.0 | 14.0 | 0.00 | 0.02 | 0.00 | 44 | 1011.5 |